Location: Elmsmere
(40.9284°N, 73.8207°W)
Time: 04:03:43
(UTC+00:00)

Cosmos 44 - Pass Details

Date: 29 October 2020
Orbit: 577 x 784 km, 65.1° (Epoch: 29 November)

Event Time Altitude Azimuth Distance (km) Brightness Sun altitude
Rises 22:14:06 0° 224° (SW) 2,842 7.6 -4.4°
Reaches altitude 10° 22:16:20 10° 229° (SW) 1,967 6.9 -4.8°
Maximum altitude 22:20:40 52° 306° (NW) 799 4.0 -5.6°
Drops below altitude 10° 22:25:18 10° 23° (NNE) 2,099 5.4 -6.5°
Sets 22:27:45 0° 29° (NNE) 3,054 6.2 -6.9°
